When you browse on this site, cookies collect data to enhance your experience and personalize the content and advertising you see.
Visit our Privacy Policy to learn more. By continuing to use the site, you agree to this use of cookies and data.
  • In France
  • List of Countries
  • For 7 days
  • Water Temperature
  • Satellite Maps
  • Weather Map
  • Weather Widgets
  • user-avatar
    Login

    Hourly Weather Zaranj

    Today, 17 July, Wednesday

    Time Temperature Precipitation Wind Pressure Humidity
    00:00 +38°C° 0 mm 8 mps 707 mmHg 12%
    01:00 +38°C° 0 mm 8 mps 707 mmHg 13%
    02:00 +36°C° 0 mm 7 mps 707 mmHg 13%
    03:00 +35°C° 0 mm 7 mps 707 mmHg 13%
    04:00 +34°C° 0 mm 6 mps 707 mmHg 13%
    05:00 +35°C° 0 mm 6 mps 707 mmHg 13%
    06:00 +36°C° 0 mm 6 mps 708 mmHg 12%
    07:00 +36°C° 0 mm 6 mps 708 mmHg 11%
    08:00 +40°C° 0 mm 6 mps 709 mmHg 9%
    09:00 +42°C° 0 mm 6 mps 709 mmHg 7%
    10:00 +46°C° 0 mm 6 mps 709 mmHg 6%
    11:00 +47°C° 0 mm 6 mps 709 mmHg 5%
    12:00 +49°C° 0 mm 6 mps 708 mmHg 4%
    13:00 +51°C° 0 mm 6 mps 708 mmHg 3%
    14:00 +52°C° 0 mm 6 mps 708 mmHg 3%
    15:00 +52°C° 0 mm 5 mps 707 mmHg 3%
    16:00 +52°C° 0 mm 4 mps 707 mmHg 3%
    17:00 +49°C° 0 mm 5 mps 707 mmHg 4%
    18:00 +47°C° 0 mm 6 mps 706 mmHg 5%
    19:00 +45°C° 0 mm 7 mps 706 mmHg 6%
    20:00 +44°C° 0 mm 8 mps 707 mmHg 7%
    21:00 +43°C° 0 mm 9 mps 707 mmHg 8%
    22:00 +42°C° 0 mm 10 mps 707 mmHg 10%
    23:00 +40°C° 0 mm 10 mps 707 mmHg 11%

    Tomorrow, 18 July, Thursday

    Time Temperature Precipitation Wind Pressure Humidity
    00:00 +39°C° 0 mm 9 mps 707 mmHg 12%
    01:00 +38°C° 0 mm 9 mps 707 mmHg 12%
    02:00 +37°C° 0 mm 8 mps 707 mmHg 13%
    03:00 +37°C° 0 mm 8 mps 707 mmHg 13%
    04:00 +35°C° 0 mm 7 mps 707 mmHg 14%
    05:00 +37°C° 0 mm 8 mps 707 mmHg 13%
    06:00 +37°C° 0 mm 8 mps 707 mmHg 12%
    07:00 +38°C° 0 mm 9 mps 708 mmHg 12%
    08:00 +40°C° 0 mm 8 mps 708 mmHg 10%
    09:00 +44°C° 0 mm 7 mps 708 mmHg 8%
    10:00 +46°C° 0 mm 7 mps 709 mmHg 6%
    11:00 +47°C° 0 mm 7 mps 708 mmHg 5%
    12:00 +50°C° 0 mm 7 mps 708 mmHg 4%
    13:00 +52°C° 0 mm 7 mps 708 mmHg 4%
    14:00 +52°C° 0 mm 6 mps 707 mmHg 3%
    15:00 +52°C° 0 mm 5 mps 707 mmHg 3%
    16:00 +52°C° 0 mm 3 mps 706 mmHg 3%
    17:00 +47°C° 0 mm 3 mps 706 mmHg 3%
    18:00 +43°C° 0 mm 2 mps 706 mmHg 4%
    19:00 +40°C° 0 mm 2 mps 705 mmHg 5%
    20:00 +39°C° 0 mm 3 mps 705 mmHg 5%
    21:00 +39°C° 0 mm 3 mps 706 mmHg 6%
    22:00 +38°C° 0 mm 4 mps 706 mmHg 7%
    23:00 +39°C° 0 mm 6 mps 706 mmHg 9%

    Day after tomorrow, 19 July, Friday

    Time Temperature Precipitation Wind Pressure Humidity
    00:00 +38°C° 0 mm 7 mps 706 mmHg 11%
    01:00 +38°C° 0 mm 8 mps 706 mmHg 14%
    02:00 +37°C° 0 mm 8 mps 706 mmHg 14%
    03:00 +37°C° 0 mm 8 mps 706 mmHg 14%
    04:00 +35°C° 0 mm 8 mps 706 mmHg 14%
    05:00 +37°C° 0 mm 8 mps 707 mmHg 13%
    06:00 +38°C° 0 mm 8 mps 707 mmHg 12%
    07:00 +39°C° 0 mm 8 mps 708 mmHg 12%
    08:00 +41°C° 0 mm 8 mps 708 mmHg 10%
    09:00 +44°C° 0 mm 7 mps 708 mmHg 8%
    10:00 +47°C° 0 mm 7 mps 709 mmHg 6%
    11:00 +48°C° 0 mm 6 mps 708 mmHg 5%
    12:00 +50°C° 0 mm 5 mps 708 mmHg 4%
    13:00 +52°C° 0 mm 4 mps 708 mmHg 3%
    14:00 +52°C° 0 mm 4 mps 707 mmHg 3%
    15:00 +52°C° 0 mm 3 mps 707 mmHg 3%
    16:00 +53°C° 0 mm 3 mps 707 mmHg 3%
    17:00 +50°C° 0 mm 3 mps 706 mmHg 4%
    18:00 +47°C° 0 mm 4 mps 706 mmHg 5%
    19:00 +43°C° 0 mm 4 mps 706 mmHg 7%
    20:00 +44°C° 0 mm 6 mps 706 mmHg 8%
    21:00 +43°C° 0 mm 8 mps 707 mmHg 10%
    22:00 +43°C° 0 mm 10 mps 707 mmHg 11%
    23:00 +42°C° 0 mm 10 mps 707 mmHg 12%

    20 July, Saturday

    Time Temperature Precipitation Wind Pressure Humidity
    00:00 +42°C° 0 mm 10 mps 707 mmHg 12%
    01:00 +41°C° 0 mm 11 mps 707 mmHg 13%
    02:00 +39°C° 0 mm 10 mps 707 mmHg 13%
    03:00 +38°C° 0 mm 9 mps 707 mmHg 14%
    04:00 +37°C° 0 mm 9 mps 707 mmHg 14%
    05:00 +37°C° 0 mm 9 mps 707 mmHg 14%
    06:00 +38°C° 0 mm 9 mps 708 mmHg 13%
    07:00 +39°C° 0 mm 9 mps 708 mmHg 12%
    08:00 +42°C° 0 mm 9 mps 709 mmHg 10%
    09:00 +45°C° 0 mm 9 mps 709 mmHg 8%
    10:00 +48°C° 0 mm 8 mps 709 mmHg 7%
    11:00 +50°C° 0 mm 8 mps 709 mmHg 6%
    12:00 +52°C° 0 mm 7 mps 709 mmHg 5%
    13:00 +54°C° 0 mm 6 mps 709 mmHg 4%
    14:00 +54°C° 0 mm 6 mps 708 mmHg 4%
    15:00 +54°C° 0 mm 5 mps 708 mmHg 3%
    16:00 +55°C° 0 mm 5 mps 708 mmHg 3%
    17:00 +52°C° 0 mm 6 mps 707 mmHg 5%
    18:00 +50°C° 0 mm 7 mps 707 mmHg 6%
    19:00 +48°C° 0 mm 8 mps 707 mmHg 8%
    20:00 +47°C° 0 mm 9 mps 707 mmHg 8%
    21:00 +45°C° 0 mm 10 mps 708 mmHg 8%
    22:00 +44°C° 0 mm 11 mps 708 mmHg 8%
    23:00 +43°C° 0 mm 11 mps 707 mmHg 9%

    21 July, Sunday

    Time Temperature Precipitation Wind Pressure Humidity
    00:00 +42°C° 0 mm 11 mps 707 mmHg 11%
    01:00 +41°C° 0 mm 12 mps 707 mmHg 12%
    02:00 +41°C° 0 mm 12 mps 707 mmHg 13%
    03:00 +39°C° 0 mm 11 mps 707 mmHg 14%
    04:00 +38°C° 0 mm 11 mps 707 mmHg 15%
    05:00 +39°C° 0 mm 12 mps 708 mmHg 15%
    06:00 +39°C° 0 mm 13 mps 708 mmHg 15%
    07:00 +41°C° 0 mm 13 mps 708 mmHg 15%
    08:00 +45°C° 0 mm 13 mps 709 mmHg 11%
    09:00 +48°C° 0 mm 12 mps 709 mmHg 8%
    10:00 +52°C° 0 mm 11 mps 710 mmHg 5%
    11:00 +53°C° 0 mm 9 mps 709 mmHg 4%
    12:00 +54°C° 0 mm 8 mps 709 mmHg 4%
    13:00 +54°C° 0 mm 6 mps 708 mmHg 3%
    14:00 +54°C° 0 mm 5 mps 708 mmHg 3%
    15:00 +54°C° 0 mm 5 mps 707 mmHg 3%
    16:00 +53°C° 0 mm 4 mps 707 mmHg 3%
    17:00 +50°C° 0 mm 5 mps 707 mmHg 4%
    18:00 +48°C° 0 mm 5 mps 706 mmHg 5%
    19:00 +45°C° 0 mm 5 mps 706 mmHg 7%
    20:00 +45°C° 0 mm 7 mps 707 mmHg 8%
    21:00 +45°C° 0 mm 9 mps 707 mmHg 9%
    22:00 +44°C° 0 mm 11 mps 707 mmHg 11%
    23:00 +43°C° 0 mm 12 mps 707 mmHg 12%

    22 July, Monday

    Time Temperature Precipitation Wind Pressure Humidity
    00:00 +43°C° 0 mm 14 mps 707 mmHg 14%
    01:00 +42°C° 0 mm 15 mps 707 mmHg 15%
    02:00 +41°C° 0 mm 16 mps 707 mmHg 18%
    03:00 +40°C° 0 mm 16 mps 707 mmHg 21%
    04:00 +38°C° 0 mm 16 mps 708 mmHg 24%
    05:00 +38°C° 0 mm 16 mps 708 mmHg 23%
    06:00 +40°C° 0 mm 16 mps 708 mmHg 23%
    07:00 +40°C° 0 mm 17 mps 709 mmHg 22%
    08:00 +42°C° 0 mm 16 mps 709 mmHg 19%
    09:00 +45°C° 0 mm 16 mps 709 mmHg 16%
    10:00 +47°C° 0 mm 16 mps 709 mmHg 12%
    11:00 +50°C° 0 mm 15 mps 708 mmHg 11%
    12:00 +51°C° 0 mm 14 mps 708 mmHg 10%
    13:00 +52°C° 0 mm 14 mps 708 mmHg 8%
    14:00 +52°C° 0 mm 14 mps 707 mmHg 8%
    15:00 +52°C° 0 mm 15 mps 707 mmHg 7%
    16:00 +53°C° 0 mm 16 mps 706 mmHg 7%
    17:00 +50°C° 0 mm 15 mps 706 mmHg 7%
    18:00 +47°C° 0 mm 15 mps 706 mmHg 8%
    19:00 +45°C° 0 mm 14 mps 706 mmHg 8%
    20:00 +43°C° 0 mm 14 mps 706 mmHg 9%
    21:00 +41°C° 0 mm 15 mps 706 mmHg 10%
    22:00 +40°C° 0 mm 16 mps 707 mmHg 11%
    23:00 +38°C° 0 mm 15 mps 706 mmHg 12%
    Show more